Location: Boncourt
(49.6160°N, 3.9448°E)
Time: 14:26:24
(UTC+00:00)

PAYLOAD B - Pass Details

Date: 09 February 2023
Orbit: 849 x 870 km, 99.1° (Epoch: 26 March)

Event Time Altitude Azimuth Distance (km) Brightness Sun altitude
Rises 17:52:26 0° 152° (SSE) 3,412 7.2 -10.1°
Reaches altitude 10° 17:54:49 10° 149° (SSE) 2,478 6.4 -10.5°
Maximum altitude 18:00:14 64° 70° (ENE) 941 4.2 -11.3°
Drops below altitude 10° 18:05:41 10° 350° (N) 2,488 6.7 -12.2°
Sets 18:08:04 0° 347° (NNW) 3,428 7.4 -12.6°
